This demonstration page uses our WeatherBlox Daily Observations layout. Learn more.

Left ArrowRight Arrow

47.50024, -111.30081

Hourly Observations for January 20, 2018

Temp ( °F °C ) Dew Point ( °F °C ) Humidity (%) Winds ( mph kmh ) Pressure ( in mb ) Visibility ( mi km ) Precip ( " mm )
12:53 am 00:53 Clear 28 -2.2 17 -8.3 63 63 SW 15 24 29.90 1013 10 16 0.00 0.00
1:53 am 01:53 Clear 27 -2.8 17 -8.3 66 66 SSW 14 22 29.91 1013 10 16 0.00 0.00
2:53 am 02:53 Clear 27 -2.8 17 -8.3 66 66 SW 15 24 29.93 1013 10 16 0.00 0.00
3:53 am 03:53 Clear 27 -2.8 17 -8.3 66 66 SW 14 22 29.93 1014 10 16 0.00 0.00
4:53 am 04:53 Clear 27 -2.8 17 -8.3 66 66 SSW 15 24 29.96 1014 10 16 0.00 0.00
5:53 am 05:53 Clear 27 -2.8 16 -8.9 63 63 SW 15 24 29.96 1015 10 16 0.00 0.00
6:53 am 06:53 Clear 26 -3.3 16 -8.9 66 66 SSW 13 20 29.97 1015 10 16 0.00 0.00
7:53 am 07:53 Clear 25 -3.9 16 -8.9 69 69 SSW 13 20 29.99 1016 10 16 0.00 0.00
8:53 am 08:53 Sunny 28 -2.2 17 -8.3 63 63 SSW 15 24 29.99 1016 10 16 0.00 0.00
9:53 am 09:53 Sunny 32 0 18 -7.8 56 56 SSW 18 30 30.00 1016 10 16 0.00 0.00
10:53 am 10:53 Sunny 35 1.7 18 -7.8 50 50 SW 18 30 29.99 1016 10 16 0.00 0.00
11:53 am 11:53 Sunny 37 2.8 19 -7.2 48 48 SW 17 28 29.97 1015 10 16 0.00 0.00
12:53 pm 12:53 Sunny 39 3.9 18 -7.8 43 43 SW 16 26 29.94 1014 10 16 0.00 0.00
1:53 pm 13:53 Sunny 40 4.4 18 -7.8 41 41 WSW 20 31 29.94 1014 10 16 0.00 0.00
2:53 pm 14:53 Sunny 39 3.9 18 -7.8 43 43 WSW 17 28 29.96 1015 10 16 0.00 0.00
3:53 pm 15:53 Sunny 38 3.3 18 -7.8 44 44 SW 16 26 29.98 1015 10 16 0.00 0.00
4:53 pm 16:53 Sunny 34 1.1 19 -7.2 54 54 SW 12 19 30.01 1016 10 16 0.00 0.00
5:53 pm 17:53 Clear 27 -2.8 19 -7.2 72 72 SW 10 17 30.05 1018 10 16 0.00 0.00
6:53 pm 18:53 Clear 27 -2.8 19 -7.2 72 72 SW 12 19 30.06 1018 10 16 0.00 0.00
7:53 pm 19:53 Clear 27 -2.8 19 -7.2 72 72 SW 13 20 30.08 1019 10 16 0.00 0.00
8:53 pm 20:53 Clear 26 -3.3 19 -7.2 75 75 SSW 13 20 30.08 1019 10 16 0.00 0.00
9:53 pm 21:53 Clear 27 -2.8 18 -7.8 69 69 SSW 14 22 30.07 1018 10 16 0.00 0.00
10:53 pm 22:53 Clear 27 -2.8 18 -7.8 69 69 SSW 13 20 30.08 1019 10 16 0.00 0.00
11:53 pm 23:53 Clear 26 -3.3 18 -7.8 71 71 SSW 12 19 30.08 1019 10 16 0.00 0.00

Powered by AerisWeather